Regional Weather Roundup
Issued by NWS State College, PA

Home | Current Version | Previous Version | Graphics & Text | Print | Product List | Glossary Off
Versions: 1 2 3 4 5 6 7 8 9 10 11 12 13 14 15 16 17 18 19 20 21 22 23 24 25 26 27 28 29 30 31 32 33 34 35 36 37 38 39 40 41 42 43 44 45 46 47 48 49 50

445
ASUS41 KCTP 231810
RWRCTP

REGIONAL WEATHER ROUNDUP
NATIONAL WEATHER SERVICE STATE COLLEGE PA
100 PM EST THU NOV 23 2017

Note: "fair" indicates few or no clouds below 12,000 feet with no
significant weather and/or obstructions to visibility.

* = STATION THAT DOES NOT REPORT PRECIPITATION /E.G. RAIN...SNOW...ETC/
    THUNDER OR FOG.

PAZ002>004-007>009-013>016-020>023-029>032-231900-
WESTERN PENNSYLVANIA

CITY           SKY/WX    TMP DP  RH WIND       PRES   REMARKS
ERIE           CLOUDY    36  22  56 S13       30.04F
MEADVILLE      PTSUNNY   32  22  66 S12       30.03F
FRANKLIN*      MOSUNNY   33  20  58 SW9       30.04F
NEW CASTLE     CLOUDY    35  22  58 S6        30.08F
BEAVER COUNTY  NOT AVBL
BUTLER*        CLOUDY    34  21  59 VRB3      30.07F
PITTSBURGH INT PTSUNNY   36  22  56 SW9       30.07F
PITTSBURGH     SUNNY     37  20  50 SW5       30.06F
INDIANA*       MOSUNNY   34  23  64 VRB6      30.09F
LATROBE        SUNNY     37  23  56 CALM      30.08F
WASHINGTON CO* PTSUNNY   37  22  54 W5        30.10
$$

PAZ004>006-010>012-017>019-024>028-033>037-041-042-045-046-049>053-231900-
CENTRAL PENNSYLVANIA

CITY           SKY/WX    TMP DP  RH WIND       PRES   REMARKS
BRADFORD       CLOUDY    30  22  72 SW5       29.98F
DUBOIS         CLOUDY    31  18  58 W12       30.02F
CLEARFIELD     CLOUDY    34  20  56 SW6       30.04F
JOHNSTOWN      SUNNY     34  20  56 W9        30.00F
ALTOONA        SUNNY     40  19  43 W8        30.04F
STATE COLLEGE  SUNNY     37  21  52 W5        30.05F
WILLIAMSPORT   MOSUNNY   39  21  48 VRB3      30.07F
SELINSGROVE    MOSUNNY   38  23  55 N7        30.09F
FT INDIANTOWN  SUNNY     40  18  42 N6        30.07F
CAPITAL CITY   SUNNY     41  19  41 N7        30.09F
HARRISBURG     MOSUNNY   41  22  46 N9        30.08F
YORK           SUNNY     40  23  50 NW8       30.08F
$$

PAZ038>040-043-044-047-048-054-055-060>062-067>071-231900-
EASTERN PENNSYLVANIA

CITY           SKY/WX    TMP DP  RH WIND       PRES   REMARKS
SCRANTON       CLOUDY    38  20  48 N6        30.05F
MOUNT POCONO   SUNNY     31  18  58 NW12G20   29.99F
ALLENTOWN      SUNNY     40  19  43 VRB6      30.06F
QUAKERTOWN*    CLEAR     37  19  48 N6        30.07F
READING        SUNNY     40  22  48 NW10      30.07F
LANCASTER      SUNNY     39  23  52 W7        30.07F
COATESVILLE    CLEAR     37  21  52 VRB7      30.07F
POTTSTOWN      SUNNY     38  19  46 VRB5      30.08F
BLUE BELL      SUNNY     37  21  52 NW6       30.08F
DOYLESTOWN     SUNNY     39  20  46 NW9       30.06F
WILLOW GROVE   NOT AVBL
NORTH PHILA    SUNNY     42  21  43 W8        30.09F
PHILADELPHIA   MOSUNNY   41  18  39 VRB5      30.09F
$$




USA.gov is the U.S. government's official web portal to all federal, state and local government web resources and services.